FW7006 Weather Reports


time (UTC)temp
C
wind
direction
speed
KPH
gust
KPH
rain 1hr
cm
rain 24hr
cm
rain mn
cm
humidity
%
barometer
mb
20260504184145 23 228 19.3 49.9 0.00 0.00 0.00 55 1003.8
20260504183642 22 231 6.4 46.7 0.00 0.00 0.00 58 1003.7
20260504183139 22 204 27.4 62.8 0.00 0.00 0.00 56 1003.8
20260504182637 22 217 24.1 72.4 0.00 0.00 0.00 57 1003.5
20260504182134 22 221 22.5 48.3 0.00 0.00 0.00 56 1003.6
20260504181632 23 218 16.1 51.5 0.00 0.00 0.00 55 1003.7
20260504181129 22 205 32.2 51.5 0.00 0.00 0.00 56 1003.7
20260504180628 23 224 29.0 57.9 0.00 0.00 0.00 55 1003.6
20260504180126 23 218 12.9 40.2 0.00 0.00 0.00 55 1003.6
20260504175623 23 221 32.2 35.4 0.00 0.00 0.00 55 1003.5
20260504175120 23 201 11.3 41.8 0.00 0.00 0.00 55 1003.6
20260504174618 23 204 20.9 49.9 0.00 0.00 0.00 55 1003.5
20260504174114 23 189 6.4 38.6 0.00 0.00 0.00 57 1003.4
20260504173611 23 220 6.4 48.3 0.00 0.00 0.00 56 1003.6
20260504173109 23 208 27.4 41.8 0.00 0.00 0.00 56 1003.6
20260504172605 22 246 22.5 41.8 0.00 0.00 0.00 54 1003.8
20260504172102 22 226 20.9 35.4 0.00 0.00 0.00 55 1003.8
20260504171558 22 209 16.1 40.2 0.00 0.00 0.00 55 1003.6
20260504171055 22 221 24.1 40.2 0.00 0.00 0.00 55 1003.9
20260504170551 22 226 35.4 37.0 0.00 0.00 0.00 58 1003.9
20260504150935 18 212 14.5 29.0 0.00 0.00 0.00 70 1005.1
20260504150432 17 210 14.5 22.5 0.00 0.00 0.00 70 1004.9
20260504140858 16 220 25.7 25.7 0.00 0.00 0.00 76 1005.3
20260504140354 16 208 20.9 24.1 0.00 0.00 0.00 77 1005.5
20260504130319 12 158 4.8 20.9 0.00 0.00 0.00 81 1005.9
20260504120237 11 201 6.4 19.3 0.00 0.00 0.00 80 1006.2
20260504110704 8 105 3.2 8.0 0.00 0.00 0.00 85 1006.0
20260504110201 8 144 4.8 8.0 0.00 0.00 0.00 86 1005.9
20260504100125 8 162 6.4 17.7 0.00 0.00 0.00 84 1006.0
20260504081518 8 146 8.0 12.9 0.00 0.00 0.00 82 1007.0
20260504081014 8 128 4.8 17.7 0.00 0.00 0.00 82 1007.2
20260504080510 8 202 11.3 17.7 0.00 0.00 0.00 82 1007.0
20260504050317 10 165 4.8 9.7 0.00 0.00 0.00 78 1008.6
20260504045814 10 125 3.2 8.0 0.00 0.00 0.00 78 1008.5
20260504045314 10 136 1.6 8.0 0.00 0.00 0.00 79 1008.5
20260504044812 10 146 3.2 8.0 0.00 0.00 0.00 78 1008.5
20260504044309 10 119 4.8 9.7 0.00 0.00 0.00 78 1008.7
20260504043806 10 131 4.8 8.0 0.00 0.00 0.00 79 1008.6
20260504043303 10 127 4.8 8.0 0.00 0.00 0.00 79 1008.9
20260504042801 10 180 1.6 8.0 0.00 0.00 0.00 78 1008.8
20260504042257 10 197 1.6 9.7 0.00 0.00 0.00 77 1008.7
20260504041753 10 140 6.4 11.3 0.00 0.00 0.00 78 1008.9
20260504041249 10 108 3.2 11.3 0.00 0.00 0.00 79 1008.8
20260504040745 10 136 4.8 17.7 0.00 0.00 0.00 78 1008.7
20260504040243 10 130 8.0 11.3 0.00 0.00 0.00 78 1008.9
20260504035739 10 123 4.8 8.0 0.00 0.08 0.08 80 1009.0
20260504035236 10 135 6.4 14.5 0.00 0.08 0.08 78 1009.3
20260504034734 10 156 3.2 16.1 0.00 0.08 0.08 79 1009.2
20260504034231 10 137 4.8 9.7 0.00 0.08 0.08 79 1009.2
20260504033729 10 131 4.8 14.5 0.00 0.08 0.08 78 1009.3
20260504033226 10 139 4.8 11.3 0.00 0.08 0.08 79 1009.4
20260504032717 10 177 6.4 14.5 0.00 0.08 0.08 79 1009.5
20260504032214 10 137 3.2 11.3 0.00 0.08 0.08 79 1009.6
20260504031710 10 128 8.0 11.3 0.00 0.08 0.08 79 1009.3
20260504031208 10 135 4.8 14.5 0.00 0.08 0.08 79 1009.5
20260504030658 10 134 8.0 11.3 0.00 0.08 0.08 79 1009.6
20260504030156 10 136 4.8 12.9 0.00 0.08 0.08 79 1009.7
20260504025652 10 127 6.4 11.3 0.00 0.08 0.08 79 1009.8
20260504025149 10 145 4.8 11.3 0.00 0.08 0.08 80 1009.7
20260504024646 10 148 4.8 11.3 0.00 0.08 0.08 79 1010.1
20260504024142 10 141 4.8 11.3 0.00 0.08 0.08 79 1009.8
20260504023639 10 137 4.8 11.3 0.00 0.08 0.08 80 1009.8
20260504023135 10 120 4.8 11.3 0.00 0.08 0.08 80 1009.8
20260504022632 10 132 3.2 11.3 0.00 0.08 0.08 80 1010.0
20260504022127 10 136 4.8 11.3 0.00 0.08 0.08 81 1009.8
20260504021626 10 139 4.8 11.3 0.00 0.08 0.08 81 1009.8
20260504021122 9 145 6.4 11.3 0.00 0.08 0.08 81 1010.1
20260504020619 9 132 6.4 14.5 0.00 0.08 0.08 81 1009.8
20260504020115 9 164 6.4 12.9 0.00 0.08 0.08 82 1009.7
20260504015612 9 145 6.4 11.3 0.00 0.08 0.08 84 1010.0
20260504015108 9 130 6.4 11.3 0.00 0.08 0.08 84 1010.1
20260504014604 9 131 8.0 12.9 0.00 0.08 0.08 83 1010.1
20260504014102 8 132 4.8 14.5 0.00 0.08 0.08 85 1010.0
20260504013559 8 142 4.8 9.7 0.00 0.08 0.08 87 1010.2
20260504013055 8 132 3.2 8.0 0.00 0.08 0.08 89 1009.8
20260504012553 8 116 0.0 8.0 0.00 0.08 0.08 90 1010.1
20260504012051 8 139 4.8 11.3 0.00 0.08 0.08 89 1010.1
20260504011547 8 148 4.8 9.7 0.00 0.08 0.08 90 1010.0
20260504011043 8 148 3.2 11.3 0.00 0.08 0.08 89 1010.0
20260504010539 8 133 8.0 11.3 0.00 0.08 0.08 89 1010.0
20260504010036 8 130 4.8 9.7 0.00 0.08 0.08 90 1010.1
20260504005532 8 140 3.2 9.7 0.00 0.08 0.08 91 1010.1
20260504005030 8 154 4.8 8.0 0.00 0.08 0.08 91 1010.2
20260504004528 8 129 3.2 12.9 0.05 0.08 0.08 92 1010.1
20260504004024 8 136 4.8 8.0 0.05 0.08 0.08 92 1010.3
20260504003520 8 148 6.4 11.3 0.00 0.08 0.08 91 1010.1
20260504003017 8 143 4.8 11.3 0.00 0.08 0.08 91 1010.2
20260504002515 8 123 3.2 12.9 0.00 0.08 0.08 90 1010.2
20260504002012 8 146 11.3 11.3 0.00 0.08 0.08 89 1010.3
20260504001509 8 134 3.2 8.0 0.00 0.08 0.08 90 1010.4
20260504001005 8 129 3.2 8.0 0.00 0.08 0.08 90 1010.2
20260504000503 8 138 3.2 11.3 0.00 0.08 0.08 91 1010.2
20260504000000 8 127 1.6 6.4 0.00 0.08 0.08 92 1010.3
20260503235458 8 82 3.2 6.4 0.00 0.08 0.08 91 1010.3
20260503234955 8 142 4.8 12.9 0.00 0.08 0.08 91 1010.4
20260503234452 8 136 4.8 9.7 0.00 0.08 0.08 90 1010.1
20260503233950 8 136 6.4 9.7 0.00 0.08 0.08 92 1010.1
20260503233446 8 116 3.2 6.4 0.00 0.08 0.08 93 1010.4
20260503232943 8 98 3.2 8.0 0.00 0.08 0.08 92 1010.1
20260503232440 8 138 4.8 11.3 0.00 0.08 0.08 92 1010.1
20260503231937 8 134 4.8 11.3 0.00 0.08 0.08 91 1010.1
20260503231435 8 119 4.8 8.0 0.00 0.08 0.08 92 1010.4
20260503230931 8 155 0.0 8.0 0.00 0.08 0.08 92 1010.5
20260503230428 8 132 3.2 9.7 0.00 0.08 0.08 92 1010.3
20260503225926 8 122 4.8 6.4 0.00 0.08 0.08 91 1010.6
20260503225422 8 128 3.2 6.4 0.00 0.08 0.08 92 1010.6
20260503224917 8 77 1.6 6.4 0.00 0.08 0.08 92 1010.8
20260503224415 8 105 1.6 8.0 0.00 0.08 0.08 92 1010.8
20260503223913 8 132 4.8 11.3 0.00 0.08 0.08 91 1011.1
20260503223410 8 78 1.6 6.4 0.00 0.08 0.08 93 1011.3
20260503222905 8 126 6.4 8.0 0.00 0.08 0.08 93 1011.2
20260503222404 8 122 3.2 16.1 0.00 0.08 0.08 93 1011.3
20260503221901 8 143 6.4 16.1 0.00 0.08 0.08 93 1011.3
20260503221400 8 124 6.4 11.3 0.00 0.08 0.08 95 1011.4
20260503220856 8 133 3.2 8.0 0.00 0.08 0.08 96 1011.5
20260503220347 7 141 4.8 8.0 0.13 0.08 0.08 96 1011.4
20260503215844 7 143 8.0 11.3 0.23 0.05 0.05 95 1012.1
20260503215341 8 142 8.0 12.9 0.23 0.05 0.05 96 1012.5
20260503214838 8 198 9.7 17.7 0.13 0.03 0.03 92 1012.4
20260503214330 8 200 8.0 20.9 0.00 0.00 0.00 90 1012.5
20260503213827 8 212 9.7 32.2 0.00 0.00 0.00 87 1012.7
20260503213325 8 205 11.3 33.8 0.00 0.00 0.00 85 1012.9
20260503212821 9 226 25.7 37.0 0.00 0.00 0.00 79 1012.7
20260503212320 10 200 38.6 43.5 0.00 0.00 0.00 75 1012.4
20260503211817 10 218 11.3 46.7 0.00 0.00 0.00 71 1012.4
20260503211314 10 234 22.5 38.6 0.00 0.00 0.00 69 1012.4
20260503210813 10 274 24.1 62.8 0.00 0.00 0.00 68 1012.2
20260503210311 11 215 27.4 53.1 0.00 0.00 0.00 66 1012.1
20260503205806 11 252 37.0 57.9 0.00 0.00 0.00 65 1012.2
20260503205304 12 206 14.5 59.5 0.00 0.00 0.00 59 1012.1
20260503204800 14 187 8.0 46.7 0.00 0.00 0.00 49 1012.0
20260503204257 14 219 14.5 46.7 0.00 0.00 0.00 43 1011.9
20260503203754 15 222 27.4 37.0 0.00 0.00 0.00 45 1011.7
20260503203252 14 213 19.3 43.5 0.00 0.00 0.00 44 1011.8
20260503202748 14 210 17.7 45.1 0.00 0.00 0.00 44 1012.0
20260503202246 15 210 27.4 40.2 0.00 0.00 0.00 43 1012.0
20260503201744 15 145 3.2 37.0 0.00 0.00 0.00 46 1012.0
20260503201241 15 215 11.3 37.0 0.00 0.00 0.00 44 1012.3
20260503200737 15 229 11.3 27.4 0.00 0.00 0.00 45 1012.1
20260503200234 15 207 19.3 35.4 0.00 0.00 0.00 45 1012.4
20260503195731 15 222 25.7 51.5 0.00 0.00 0.00 43 1012.2
20260503195228 15 225 8.0 53.1 0.00 0.00 0.00 43 1012.2
20260503194726 15 217 27.4 53.1 0.00 0.00 0.00 42 1012.4
20260503194221 15 197 12.9 24.1 0.00 0.00 0.00 42 1012.5
20260503193717 16 222 11.3 43.5 0.00 0.00 0.00 40 1012.5
20260503193214 15 214 17.7 33.8 0.00 0.00 0.00 42 1012.3
20260503192709 15 216 24.1 40.2 0.00 0.00 0.00 43 1012.5
20260503192205 15 219 14.5 45.1 0.00 0.00 0.00 42 1012.7
20260503191702 16 210 19.3 32.2 0.00 0.00 0.00 41 1012.4
20260503191159 16 216 25.7 43.5 0.00 0.00 0.00 41 1012.5
20260503190655 15 219 11.3 41.8 0.00 0.00 0.00 42 1012.8
20260503190152 15 213 17.7 40.2 0.00 0.00 0.00 43 1012.6
20260503185643 16 213 25.7 51.5 0.00 0.00 0.00 40 1012.8
20260503185138 16 208 17.7 35.4 0.00 0.00 0.00 43 1013.0
20260503184634 16 227 17.7 45.1 0.00 0.00 0.00 39 1012.9